TITAN 3C TRANSTAGE DEB, 5986

Orbit data source: Space-Track

TITAN 3C TRANSTAGE DEB, 5986 is space debris in HEO originally from a launch on Tue, 21 Dec 1965 UTC launched from the Air Force Eastern Test Range (AFETR). Debris objects in space refer to the collection of defunct objects orbiting the Earth. Examples of debris include non-operational satellites, rocket bodies, and fragments generated from explosions, collisions, or faulty payload assembly.

Loading next visibility...
Identifier
5986, 1965-108Q
Orbit
HEO
Country
Flag of USUS
Related business
Manufacturer
Unknown
Mission
Spacecraft
Bus & Motor
Unknown
Mass
Unknown
Launch date (UTC)
1965-12-21 (60 years ago)
Launch vehicle
Unknown
Launch site
Air Force Eastern Test Range (AFETR)
Object type
Payload
Rocket body
Debris
Shape & HBR
Unknown shape, 0.2 m
Radar Cross Section
Medium (>0.1 m² and <1 m²)

Expand to show TLE details & history
Last TLE update: 2 days ago

TLE from 2 days ago
0 TITAN 3C TRANSTAGE DEB
1 05986U 65108Q   26131.92531128  .00003072  00000-0  32996-2 0  9995
2 05986  26.7463  43.9805 6160584 200.0305 117.5933  3.70948905295580
Epoch: 2026-05-11T22:12Z
TLE epoch observation values (Epoch: 2026-05-11T22:12:26.894Z)
Latitude
0.00006°
Longitude
-158.84196°
Altitude
19,601.075 km
Speed
2.842 km/s
True Right ascension
02h 55m 54s
True Declination
0° 00' 00"
Sunlit
Object was in daylight at epoch
Visualization orbit readout
Latitude
Unknown
Longitude
Unknown
Altitude
Unknown
Speed
Unknown
Apparent Right ascension
Unknown
Apparent Declination
Unknown
Sunlit
N/A
Visualization observer readout
Local Sidereal Time
01:55:55
Azimuth
Unknown
Elevation
Unknown
Doppler factor
Unknown
Orbital elements
Apogee altitude
22,114.815 km
Perigee altitude
391.191 km
Semi-major axis
17,631.14 km
Eccentricity
0.61606
Inclination
26.7463°
RAAN
43.9805°
Arg. of periapsis
200.0305°
True anomaly
159.98251°
Mean anomaly
117.5933°
Eccentric anomaly
140.19158°
Mean motion
0.92709 °/min
Orbital period
388.31 mins
BSTAR
0.0032996
Loading maneuver chart data...
Computing Atmospheric mass density...

Documentation

Showing up to 5 results
|